FW1793 Weather Reports


time (UTC)temp
C
wind
direction
speed
KPH
gust
KPH
rain 1hr
cm
rain 24hr
cm
rain mn
cm
humidity
%
barometer
mb
20260504044529 8 180 0.0 3.2 0.00 0.03 0.00 85 1007.7
20260504043524 8 180 0.0 3.2 0.00 0.03 0.00 86 1007.8
20260504042520 8 180 3.2 4.8 0.00 0.03 0.00 85 1007.8
20260504041516 8 106 1.6 3.2 0.00 0.03 0.00 85 1008.0
20260504040526 8 180 1.6 3.2 0.00 0.03 0.00 85 1008.2
20260504035519 8 180 0.0 3.2 0.00 0.03 0.03 84 1008.3
20260504034529 8 0.0 1.6 0.00 0.03 0.03 85 1008.3
20260504033520 8 0.0 1.6 0.00 0.03 0.03 85 1008.3
20260504032528 8 0.0 1.6 0.00 0.03 0.03 85 1008.4
20260504031522 8 180 3.2 4.8 0.00 0.03 0.03 85 1008.5
20260504030532 8 191 3.2 6.4 0.00 0.03 0.03 85 1008.6
20260504025524 8 184 3.2 6.4 0.00 0.03 0.03 85 1008.6
20260504024518 8 209 6.4 9.7 0.00 0.03 0.03 85 1008.9
20260504023548 8 225 3.2 8.0 0.00 0.03 0.03 85 1009.0
20260504022521 8 192 1.6 4.8 0.00 0.03 0.03 85 1009.0
20260504021529 8 213 3.2 4.8 0.00 0.03 0.03 84 1009.0
20260504020524 8 192 1.6 3.2 0.00 0.03 0.03 84 1009.0
20260504015517 8 225 3.2 4.8 0.00 0.03 0.03 83 1009.0
20260504014546 8 188 1.6 4.8 0.00 0.03 0.03 83 1008.9
20260504013521 8 248 3.2 6.4 0.00 0.03 0.03 82 1009.0
20260504012530 8 242 6.4 9.7 0.00 0.03 0.03 80 1009.0
20260504011522 8 255 8.0 16.1 0.00 0.03 0.03 78 1009.0
20260504010531 8 260 8.0 12.9 0.00 0.03 0.03 75 1009.0
20260504005546 9 264 11.3 17.7 0.00 0.03 0.03 73 1009.0
20260504004542 9 273 9.7 14.5 0.00 0.03 0.03 71 1009.0
20260504003526 9 250 8.0 12.9 0.03 0.03 0.03 70 1008.9
20260504002521 9 241 8.0 12.9 0.03 0.03 0.03 70 1008.8
20260504001529 9 264 6.4 12.9 0.03 0.03 0.03 68 1008.9
20260504000524 9 247 6.4 12.9 0.03 0.03 0.03 65 1008.7
20260503235517 10 297 11.3 20.9 0.03 0.03 0.03 61 1008.6
20260503234526 10 260 8.0 14.5 0.03 0.03 0.03 54 1008.7
20260503233520 10 208 3.2 8.0 0.00 0.00 0.00 51 1008.6
20260503232529 10 229 3.2 6.4 0.00 0.00 0.00 51 1008.6
20260503231603 11 203 0.0 3.2 0.00 0.00 0.00 50 1008.7
20260503230531 11 236 4.8 8.0 0.00 0.00 0.00 49 1008.5
20260503225524 11 316 1.6 4.8 0.00 0.00 0.00 48 1008.6
20260503224519 11 263 4.8 8.0 0.00 0.00 0.00 48 1008.9
20260503223527 11 298 4.8 9.7 0.00 0.00 0.00 49 1009.0
20260503222521 11 266 8.0 12.9 0.00 0.00 0.00 49 1009.1
20260503221531 11 254 4.8 9.7 0.00 0.00 0.00 49 1009.2
20260503220524 11 330 11.3 17.7 0.00 0.00 0.00 46 1009.2
20260503215517 11 252 12.9 17.7 0.00 0.00 0.00 41 1009.2
20260503214526 12 242 12.9 20.9 0.00 0.00 0.00 35 1009.0
20260503213520 12 239 16.1 25.7 0.00 0.00 0.00 36 1009.0
20260503212527 12 233 16.1 20.9 0.00 0.00 0.00 34 1008.8
20260503211522 12 202 12.9 20.9 0.00 0.00 0.00 33 1008.6
20260503210519 13 215 17.7 24.1 0.00 0.00 0.00 32 1008.8
20260503205628 13 231 11.3 22.5 0.00 0.00 0.00 32 1008.9
20260503204522 15 271 9.7 16.1 0.00 0.00 0.00 34 1008.9
20260503203528 13 251 11.3 19.3 0.00 0.00 0.00 36 1009.1
20260503202523 13 223 20.9 29.0 0.00 0.00 0.00 35 1009.3
20260503201516 13 237 17.7 30.6 0.00 0.00 0.00 39 1009.4
20260503200525 13 240 14.5 22.5 0.00 0.00 0.00 37 1009.6
20260503195519 13 255 14.5 22.5 0.00 0.00 0.00 35 1009.7
20260503194548 13 281 14.5 27.4 0.00 0.00 0.00 33 1009.7
20260503193523 13 251 12.9 22.5 0.00 0.00 0.00 32 1009.7
20260503192531 13 223 19.3 27.4 0.00 0.00 0.00 31 1009.9
20260503191526 15 249 17.7 29.0 0.00 0.00 0.00 31 1010.0
20260503190539 13 266 9.7 17.7 0.00 0.00 0.00 34 1010.2
20260503185530 13 253 14.5 25.7 0.00 0.00 0.00 34 1010.3
20260503184522 13 237 12.9 25.7 0.00 0.00 0.00 34 1010.5
20260503183533 13 275 14.5 25.7 0.00 0.00 0.00 32 1010.6
20260503182524 13 239 12.9 20.9 0.00 0.00 0.00 32 1010.7
20260503181519 13 288 11.3 17.7 0.00 0.00 0.00 31 1010.8
20260503180528 13 252 14.5 20.9 0.00 0.00 0.00 31 1010.6
20260503175523 13 243 12.9 17.7 0.00 0.00 0.00 31 1010.7
20260503174529 13 258 11.3 17.7 0.00 1.68 0.00 30 1010.8
20260503173524 13 292 12.9 25.7 0.00 1.68 0.00 27 1010.8
20260503172522 12 258 17.7 29.0 0.00 1.68 0.00 26 1011.2
20260503171527 12 257 19.3 29.0 0.00 1.68 0.00 23 1011.3
20260503170542 13 281 16.1 22.5 0.00 1.68 0.00 24 1011.3
20260503150529 11 205 11.3 19.3 0.00 1.68 0.00 31 1012.8
20260503130529 8 233 8.0 12.9 0.00 1.68 0.00 43 1013.9
20260503110531 2 253 1.6 4.8 0.00 1.68 0.00 64 1013.9
20260503081517 2 0.0 1.6 0.00 1.68 0.00 60 1014.0
20260503080526 2 268 3.2 4.8 0.00 1.68 0.00 60 1014.1
20260503072550 2 271 3.2 6.4 0.00 1.68 0.00 59 1014.1
20260503071523 2 200 1.6 4.8 0.00 1.68 0.00 58 1014.1
20260503070620 2 262 3.2 6.4 0.00 1.68 0.00 57 1014.1
20260503054518 3 232 1.6 4.8 0.00 1.68 0.00 65 1014.5
20260503053526 3 251 3.2 4.8 0.00 1.68 0.00 66 1014.6
20260503052518 3 234 3.2 6.4 0.00 1.68 0.00 65 1014.5
20260503051529 3 228 3.2 4.8 0.00 1.68 0.00 63 1014.7
20260503050524 3 225 3.2 3.2 0.00 1.68 0.00 62 1014.7
20260503045518 3 238 3.2 6.4 0.00 1.68 0.00 62 1014.8